Home   Weather   Rockford   Past weeks

Flag for USA Past Weather in Rockford, Illinois, USA — Yesterday and Last 2 Weeks

Now
46 °F

Fog.


Feels Like: 41 °F
Forecast: 41 / 51 °F
Wind: 10 mph from Southeast

Location: Greater Rockford Airport

Current Time: Jan 21, 2017 at 7:39:57 am

Latest Report: Jan 21, 2017 at 7:18 am


Visibility: 0 mi

Pressure: 29.49 "Hg

Humidity: 93%

Dew Point: 44 °F

Location of RockfordLocation

Past Weather in Rockford — Graph

°F

Rockford Temperature Yesterday

Maximum temperature yesterday: 42 °F (at 11:54 pm)
Minimum temperature yesterday: 38 °F (at 12:54 am)
Average temperature yesterday: 40 °F

High & Low Weather Summary for the Past Weeks

 TemperatureHumidityPressure
High51 °F (Jan 10, 1:15 pm)100% (Jan 21, 2:54 am)30.86 "Hg (Jan 21, 2:54 am)
Low-1 °F (Jan 6, 6:54 am)41% (Jan 8, 1:54 pm)29.19 "Hg (Jan 10, 1:15 pm)
Average28 °F79%30.12 "Hg
* Reported Jan 6 5:54 am — Jan 21 5:54 am, Rockford, Weather by CustomWeather, © 2017

Note: Actual official high and low records may vary slightly from our data, if they occured in-between our weather recording intervals... More about our weather records

Advertising

Rockford Weather History for the Previous 24 Hours

Scroll right to see more
 ConditionsComfort  
Time TempWeatherWind HumidityBarometerVisibility
5:54 am
Sat, Jan 21
46 °FFog.7 mph96%29.51 "Hg1 mi
5:41 am46 °FFog.8 mph96%29.50 "Hg1 mi
5:16 am46 °FFog.9 mph93%29.50 "Hg1 mi
4:54 am45 °FFog.7 mph97%29.51 "Hg1 mi
3:54 am44 °FFog.6 mph96%29.54 "Hg1 mi
2:54 am42 °FFog.6 mph100%29.56 "Hg1 mi
1:54 am42 °FFog.3 mph96%29.58 "Hg1 mi
12:54 am42 °FFog.6 mph96%29.59 "Hg1 mi
12:41 am42 °FFog.7 mph96%29.57 "Hg1 mi
11:54 pm
Fri, Jan 20
42 °FFog.6 mph92%29.60 "Hg1 mi
11:02 pm41 °FLight rain. Fog.8 mph96%29.61 "Hg1 mi
9:54 pm40 °FDrizzle. Fog.3 mph97%29.64 "Hg0 mi
8:54 pm40 °FFog.5 mph97%29.65 "Hg0 mi
8:34 pm40 °FFog.6 mph97%29.63 "Hg0 mi
7:54 pm40 °FFog.6 mph97%29.65 "Hg0 mi
7:03 pm40 °FDrizzle. Fog.7 mph97%29.65 "Hg0 mi
6:54 pm40 °FDrizzle. Fog.6 mph97%29.66 "Hg0 mi
5:54 pm40 °FFog.5 mph97%29.65 "Hg0 mi
5:16 pm40 °FFog.6 mph97%29.63 "Hg0 mi
4:54 pm40 °FFog.5 mph97%29.65 "Hg0 mi
3:54 pm41 °FDrizzle. Fog.6 mph93%29.65 "Hg1 mi
3:11 pm41 °FDrizzle. Fog.5 mph93%29.63 "Hg1 mi
2:54 pm41 °FFog.7 mph93%29.64 "Hg1 mi
2:09 pm41 °FFog.6 mph93%29.61 "Hg1 mi
1:54 pm41 °FFog.7 mph93%29.62 "Hg2 mi
1:24 pm41 °FFog.7 mph93%29.62 "Hg2 mi
12:54 pm41 °FFog.5 mph93%29.64 "Hg4 mi
12:13 pm41 °FFog.5 mph93%29.64 "Hg3 mi
11:54 am41 °FFog.7 mph89%29.66 "Hg4 mi
10:54 am40 °FFog.6 mph93%29.67 "Hg4 mi
9:54 am40 °FFog.5 mph93%29.69 "Hg4 mi
9:39 am39 °FFog.5 mph96%29.66 "Hg3 mi
8:54 am39 °FFog.No wind93%29.67 "Hg3 mi
7:54 am38 °FFog.5 mph93%29.66 "Hg4 mi
Weather by CustomWeather, © 2017

See weather overviewHow to use our weather pages